ECHOSTAR 23 (42070 NORAD) Tracking and Keplerian Element Data

This shows tracking and keplerian element data for the satellite.

Feedback or suggestion? Click here.




ElementValue
Catalog42070
NameECHOSTAR 23
Epoch Orbit2029
Epoch Day269.64857147
Epoch Year2022
RAAN181.829
Inclination0.0236
Eccentricity0.0002034
Argument of Perigee358.6042
Mean Anonmoly308.5808
Mean Motion1.0026891
Decay Rate-5.4E-07
L11 42070U 17014A 22269.64857147 -.00000054 00000+0 00000+0 0 9997
L22 42070 0.0236 181.8290 0002034 358.6042 308.5808 1.00268910 20294

Live tracking and technical data element details for ECHOSTAR 23 (NORAD 42070). ECHOSTAR 23 can be tracked NOW for your location showing map with azimuth and elevation plus other details from your city location.

Track the satellite on the map from your city or location and see movement details for azimuth, elevation, latitude, longitude, range, height, and movement on the map or in text.







IsCatalogInMostPopularTable: catalog: 42070, numindb: 723
Update: records affected: 1



GetName: 42070 ECHOSTAR 23

Hit Count: updated at: Fri, 30 Sep 2022 04:09:23 GMT